SCP
0 0 0 0 0 0 0 0 0 0 0 0 0 0 0 0 0 0 0 0 0 0
0 0 0 0 0 0 0 0 0 0 0 0 0 0 0 0 0 0 0 0 0 0
0 0 0 0 0 0 0 0 0 0 0 0 0 0 0 0 0 0 0 0 0 0
0 0 0 0 0 0 0 0 0 0 0 0 0 0 0 0 0 0 0 0 0 0
0 0 0 0 0 0 0 0 0 0 0 0 0 0 0 0 0 0 0 0 0 0
0 0 0 0 0 0 0 0 0 0 0 0 0 0 0 0 0 0 0 0 0 0
0 0 0 0 0 0 0 0 0 0 0 0 0 0 0 0 0 0 0 0 0 0
0 0 0 0 0 0 0 0 0 0 0 0 0 0 0 0 0 0 0 0 0 0
0 0 0 0 0 0 0 0 0 0 0 0 0 0 0 0 0 0 0 0 0 0
0 0 0 0 0 0 0 0 0 0 0 0 0 0 0 0 0 0 0 0 0 0
0 0 0 0 0 0 0 0 0 0 0 0 0 0 0 0 0 0 0 0 0 0
0 0 0 0 0 0 0 0 0 0 0 0 0 0 0 0 0 0 0 0 0 0
0 0 0 0 0 0 0 0 0 0 0 0 0 0 0 0 0 0 0 0 0 0
0 0 0 0 0 0 0 0 0 0 0 0 0 0 0 0 0 0 0 0 0 0
Wind_Speed_500mb
95 93 91 88 90 89 83 78 73 69 66 62 57 53 49 47 43 41 37 35 34 32
102 101 102 99 95 97 92 85 81 76 73 69 66 62 58 56 51 45 42 40 40 42
109 108 107 106 106 106 103 94 90 86 82 76 73 70 66 62 56 52 50 47 47 48
116 115 114 116 116 116 111 105 98 96 89 85 81 78 73 68 62 59 55 54 52 51
117 117 120 124 124 121 120 114 110 105 101 95 89 83 79 75 71 67 62 57 56 54
110 118 126 129 129 127 126 124 119 115 112 106 99 93 87 81 76 71 64 60 59 57
99 107 115 123 130 132 130 128 127 124 121 114 106 100 92 87 81 75 69 64 63 61
87 94 104 115 121 126 128 131 130 127 125 120 114 107 99 92 85 78 73 69 67 65
74 83 94 105 115 119 124 125 125 128 130 127 122 115 104 94 87 81 76 72 69 66
70 73 81 94 106 113 117 119 124 127 128 131 125 120 107 97 89 83 78 73 69 68
66 70 72 75 91 106 108 114 119 124 127 126 126 121 108 97 89 83 79 74 70 66
64 66 69 74 78 87 102 107 112 118 119 119 120 116 107 97 90 85 79 74 69 64
64 63 61 65 71 72 91 102 104 112 114 112 115 109 104 98 92 86 79 72 64 59
75 67 71 70 67 64 72 86 98 107 106 106 104 104 99 99 89 82 75 66 57 50
Wind_Direction_500mb
245 244 243 241 242 247 246 245 243 240 239 239 238 238 237 239 240 241 243 249 254 259
247 246 246 244 242 245 247 247 247 244 243 241 239 239 241 241 244 246 250 253 256 260
250 250 248 246 246 245 248 245 246 245 245 243 242 241 241 244 245 246 250 254 257 261
252 251 250 249 249 248 247 247 244 246 244 243 242 240 241 244 246 248 250 253 257 262
256 254 253 252 253 251 249 247 247 244 244 244 243 242 241 244 245 246 248 252 255 261
262 259 257 257 256 254 251 250 247 245 244 244 243 242 241 243 244 245 247 252 255 261
267 267 267 265 260 256 254 252 248 246 246 245 244 243 242 242 242 243 245 249 253 257
278 275 272 265 261 258 256 255 252 249 247 245 244 242 240 240 241 242 244 247 250 254
284 281 276 270 263 258 255 253 250 249 248 245 243 242 240 239 239 240 241 245 248 252
294 288 284 277 267 260 255 252 250 248 247 247 246 242 239 236 236 237 240 242 245 249
307 300 293 284 273 264 258 253 250 249 246 246 248 244 237 233 233 234 236 239 242 246
301 302 299 292 281 272 261 254 251 247 242 241 244 244 235 228 228 230 231 234 238 244
298 296 299 300 295 278 265 259 253 246 242 240 242 242 233 226 226 226 226 228 235 243
304 297 300 295 288 277 263 255 250 244 238 239 240 238 229 226 223 223 222 227 233 240
Wind_Speed_850mb
95 93 91 88 90 89 83 78 73 69 66 62 57 53 49 47 43 41 37 35 34 32
102 101 102 99 95 97 92 85 81 76 73 69 66 62 58 56 51 45 42 40 40 42
109 108 107 106 106 106 103 94 90 86 82 76 73 70 66 62 56 52 50 47 47 48
116 115 114 116 116 116 111 105 98 96 89 85 81 78 73 68 62 59 55 54 52 51
117 117 120 124 124 121 120 114 110 105 101 95 89 83 79 75 71 67 62 57 56 54
110 118 126 129 129 127 126 124 119 115 112 106 99 93 87 81 76 71 64 60 59 57
99 107 115 123 130 132 130 128 127 124 121 114 106 100 92 87 81 75 69 64 63 61
87 94 104 115 121 126 128 131 130 127 125 120 114 107 99 92 85 78 73 69 67 65
74 83 94 105 115 119 124 125 125 128 130 127 122 115 104 94 87 81 76 72 69 66
70 73 81 94 106 113 117 119 124 127 128 131 125 120 107 97 89 83 78 73 69 68
66 70 72 75 91 106 108 114 119 124 127 126 126 121 108 97 89 83 79 74 70 66
64 66 69 74 78 87 102 107 112 118 119 119 120 116 107 97 90 85 79 74 69 64
64 63 61 65 71 72 91 102 104 112 114 112 115 109 104 98 92 86 79 72 64 59
75 67 71 70 67 64 72 86 98 107 106 106 104 104 99 99 89 82 75 66 57 50
Wind_Direction_850mb
245 244 243 241 242 247 246 245 243 240 239 239 238 238 237 239 240 241 243 249 254 259
247 246 246 244 242 245 247 247 247 244 243 241 239 239 241 241 244 246 250 253 256 260
250 250 248 246 246 245 248 245 246 245 245 243 242 241 241 244 245 246 250 254 257 261
252 251 250 249 249 248 247 247 244 246 244 243 242 240 241 244 246 248 250 253 257 262
256 254 253 252 253 251 249 247 247 244 244 244 243 242 241 244 245 246 248 252 255 261
262 259 257 257 256 254 251 250 247 245 244 244 243 242 241 243 244 245 247 252 255 261
267 267 267 265 260 256 254 252 248 246 246 245 244 243 242 242 242 243 245 249 253 257
278 275 272 265 261 258 256 255 252 249 247 245 244 242 240 240 241 242 244 247 250 254
284 281 276 270 263 258 255 253 250 249 248 245 243 242 240 239 239 240 241 245 248 252
294 288 284 277 267 260 255 252 250 248 247 247 246 242 239 236 236 237 240 242 245 249
307 300 293 284 273 264 258 253 250 249 246 246 248 244 237 233 233 234 236 239 242 246
301 302 299 292 281 272 261 254 251 247 242 241 244 244 235 228 228 230 231 234 238 244
298 296 299 300 295 278 265 259 253 246 242 240 242 242 233 226 226 226 226 228 235 243
304 297 300 295 288 277 263 255 250 244 238 239 240 238 229 226 223 223 222 227 233 240